[[{"header":{"parameterUnit":"m.s-1","parameterCategory":1,"la1":30.2992,"la2":30.254,"lo1":-89.0895,"lo2":-89.0443,"dy":0.0025,"dx":0.0025,"nx":19,"ny":19,"refTime":"2026-05-08T21:00:00:Z","depth":0,"parameterNumber":2,"parameterNumberName":"U-component_of_WINDS"},"data":[0,0,0,-1.1278,-1.1277,-1.1226,-1.1226,-1.1165,-1.1164,0,0,0,0,0,0,0,0,0,0,0,-1.1297,-1.1297,-1.1278,-1.1277,-1.1226,-1.1226,-1.1165,-1.1164,0,0,0,0,0,0,0,0,0,0,0,-1.1297,-1.1297,-1.1297,-1.1277,-1.1226,-1.1226,-1.1165,-1.1202,0,0,0,0,0,0,0,0,0,0,-1.1251,-1.1272,-1.1297,-1.1297,-1.1277,-1.1226,-1.1226,-1.1204,-1.12,-1.119,0,-1.1184,0,-1.1173,-1.1161,-1.116,0,0,0,-1.1274,-1.1276,-1.1258,-1.1297,-1.1276,-1.1226,-1.1248,-1.1201,-1.1197,-1.1185,-1.1183,-1.118,-1.1172,-1.116,-1.116,-1.1114,-1.1114,0,0,-1.1277,-1.129,-1.1261,-1.1256,-1.1265,-1.125,-1.1247,-1.1198,-1.1197,-1.1183,-1.1179,-1.1171,-1.116,-1.1159,-1.1114,-1.1114,0,0,0,-1.1287,-1.1292,-1.1276,-1.1258,-1.1249,-1.1248,-1.1245,-1.1199,-1.1193,-1.1178,-1.117,-1.116,-1.1159,-1.1114,-1.1114,-1.1121,0,0,0,-1.1289,-1.1298,-1.1277,-1.1285,-1.125,-1.1224,-1.1247,-1.1196,-1.119,-1.1171,-1.116,-1.1158,-1.1114,-1.1114,-1.1121,-1.1122,0,0,0,-1.1299,-1.1299,-1.1293,-1.1286,-1.1264,-1.1224,-1.1215,-1.1194,-1.1185,-1.116,-1.1158,-1.1114,-1.1114,-1.1121,-1.1122,-1.1111,0,0,0,-1.1315,-1.1303,-1.1294,-1.1277,-1.1265,-1.1229,-1.1215,-1.1188,-1.1168,-1.1159,-1.1114,-1.1114,-1.1121,-1.1122,-1.1111,-1.1103,-1.1102,0,0,-1.1307,-1.1303,-1.1291,-1.1282,-1.1251,-1.1236,-1.1205,-1.1175,-1.1161,-1.113,-1.1129,-1.1121,-1.1122,-1.1111,-1.1091,-1.109,0,0,0,-1.1293,-1.1285,-1.1274,-1.1255,-1.123,-1.1207,-1.118,-1.1167,-1.114,-1.1148,-1.1115,-1.1115,-1.1108,-1.1103,-1.1102,-1.1094,-1.1113,-1.1113,-1.1113,-1.1303,-1.1283,-1.1262,-1.1235,-1.1216,-1.1185,-1.1167,-1.1145,-1.1134,-1.1125,-1.1116,-1.1106,-1.1102,-1.1101,-1.1092,-1.1112,-1.1112,-1.1112,-1.1112,-1.1288,-1.1273,-1.1253,-1.1226,-1.1204,-1.1181,-1.1149,-1.114,-1.1114,-1.1113,-1.1106,-1.1105,-1.11,-1.1091,-1.1112,-1.1112,-1.1112,-1.1112,-1.1112,-1.1291,-1.128,-1.1264,-1.123,-1.1205,-1.1178,-1.1152,-1.1134,-1.1117,-1.111,-1.1096,-1.1096,-1.1091,-1.1105,-1.1105,-1.1105,-1.1105,-1.1105,-1.1105,-1.13,-1.1282,-1.1262,-1.1231,-1.1213,-1.1187,-1.1153,-1.1134,-1.1109,-1.1098,-1.1098,-1.1084,-1.1104,-1.1108,-1.1104,-1.1104,-1.1104,-1.1104,-1.1104,-1.1291,-1.1289,-1.1259,-1.1241,-1.12,-1.1174,-1.115,-1.1113,-1.1095,-1.1082,-1.1069,-1.1087,-1.1081,-1.1082,-1.1085,-1.1075,-1.1075,-1.1075,-1.1075,-1.1292,-1.1287,-1.1249,-1.122,-1.119,-1.1164,-1.1126,-1.1097,-1.1067,-1.1054,-1.1053,-1.1056,-1.1057,-1.105,-1.1052,-1.1054,-1.1037,-1.1037,-1.1037,-1.1284,-1.1274,-1.1247,-1.1216,-1.1181,-1.1151,-1.1114,-1.108,-1.1046,-1.1035,-1.1042,-1.1044,-1.1048,-1.1051,-1.1041,-1.1044,-1.1048,0,0]},{"header":{"parameterUnit":"m.s-1","parameterCategory":1,"la1":30.2992,"la2":30.254,"lo1":-89.0895,"lo2":-89.0443,"dy":0.0025,"dx":0.0025,"nx":19,"ny":19,"refTime":"2026-05-08T21:00:00:Z","depth":0,"parameterNumber":3,"parameterNumberName":"V-component_of_WINDS"},"data":[0,0,0,3.3044,3.3041,3.2934,3.2934,3.2803,3.2802,0,0,0,0,0,0,0,0,0,0,0,3.3079,3.3078,3.3044,3.3041,3.2934,3.2934,3.2803,3.2802,0,0,0,0,0,0,0,0,0,0,0,3.3079,3.3078,3.3077,3.3041,3.2934,3.2934,3.2803,3.2882,0,0,0,0,0,0,0,0,0,0,3.2985,3.3021,3.3079,3.3077,3.304,3.2934,3.2934,3.2886,3.2877,3.2854,0,3.2834,0,3.2816,3.2794,3.2793,0,0,0,3.3039,3.3028,3.2996,3.3077,3.3039,3.2934,3.2982,3.2881,3.2871,3.2843,3.2833,3.2828,3.2814,3.2793,3.2792,3.267,3.2669,0,0,3.3044,3.3061,3.3003,3.299,3.3007,3.2985,3.2978,3.2875,3.2865,3.2832,3.2824,3.2812,3.2792,3.2791,3.267,3.267,0,0,0,3.3063,3.3065,3.3036,3.2996,3.2976,3.2982,3.2974,3.2869,3.2858,3.2823,3.281,3.2791,3.279,3.2671,3.267,3.2665,0,0,0,3.3067,3.3076,3.3039,3.3048,3.2978,3.2921,3.2971,3.2865,3.2853,3.2811,3.2791,3.2788,3.2671,3.267,3.2666,3.266,0,0,0,3.3085,3.3078,3.3064,3.3049,3.3004,3.2922,3.2905,3.2862,3.2846,3.2793,3.2788,3.2671,3.267,3.2667,3.2661,3.2634,0,0,0,3.3108,3.306,3.3064,3.3006,3.3005,3.292,3.2906,3.2842,3.2796,3.279,3.2671,3.267,3.2668,3.2662,3.2635,3.2614,3.2607,0,0,3.3057,3.3054,3.3019,3.3019,3.2939,3.2935,3.2854,3.2795,3.2774,3.2706,3.2703,3.2666,3.2662,3.2634,3.2558,3.2553,0,0,0,3.3008,3.2983,3.2958,3.2915,3.287,3.2832,3.2784,3.2763,3.2705,3.2743,3.2647,3.2644,3.2628,3.2617,3.2612,3.2597,3.2666,3.2666,3.2666,3.2958,3.2936,3.2876,3.2841,3.28,3.2753,3.2718,3.2682,3.2669,3.2648,3.2627,3.2584,3.2572,3.2568,3.2553,3.2614,3.2614,3.2614,3.2614,3.2881,3.2842,3.283,3.2767,3.2744,3.2691,3.2644,3.2638,3.2586,3.2597,3.2581,3.2596,3.2563,3.2548,3.2613,3.2613,3.2613,3.2613,3.2613,3.2847,3.2824,3.28,3.2739,3.2694,3.266,3.2611,3.2592,3.2572,3.2557,3.2534,3.2534,3.2533,3.2547,3.2547,3.2547,3.2547,3.2547,3.2547,3.2821,3.2794,3.2755,3.2706,3.2677,3.2637,3.2591,3.2562,3.2526,3.2516,3.2515,3.2507,3.2563,3.2579,3.2544,3.2545,3.2545,3.2545,3.2545,3.2752,3.2765,3.2706,3.2677,3.2619,3.2577,3.2552,3.2497,3.247,3.2447,3.2442,3.2488,3.2483,3.2487,3.25,3.2447,3.2447,3.2447,3.2447,3.2724,3.272,3.2656,3.2613,3.2568,3.2541,3.2476,3.2441,3.2406,3.2389,3.2394,3.2409,3.2413,3.2406,3.2412,3.2423,3.2352,3.2352,3.2352,3.2681,3.2673,3.2621,3.2588,3.2541,3.2501,3.244,3.2392,3.2355,3.2348,3.2375,3.2379,3.2403,3.2412,3.2405,3.2414,3.2434,0,0]}]]